FW2297 Weather Reports


time (UTC)temp
F
wind
direction
speed
knots
gust
knots
rain 1hr
in
rain 24hr
in
rain mn
in
humidity
%
barometer
mb
20260504194605 67 0 2.6 12.2 0.00 0.01 0.00 35 1004.9
20260504194048 67 248 1.7 9.6 0.00 0.01 0.00 36 1004.9
20260504193549 67 329 0.0 12.2 0.00 0.01 0.00 36 1004.9
20260504193058 67 0 0.0 14.8 0.00 0.01 0.00 37 1004.9
20260504192550 67 0 2.6 15.6 0.00 0.01 0.00 37 1004.8
20260504192048 67 320 6.1 15.6 0.00 0.01 0.00 37 1004.9
20260504191555 66 0 0.9 16.5 0.00 0.01 0.00 39 1004.9
20260504191051 66 0 5.2 16.5 0.00 0.01 0.00 37 1004.7
20260504190551 67 0 3.5 14.8 0.00 0.01 0.00 37 1004.8
20260504190128 68 271 3.5 14.8 0.00 0.01 0.00 35 1004.9
20260504185548 68 0 0.9 20.9 0.00 0.01 0.00 36 1005.0
20260504185051 68 233 6.1 20.9 0.00 0.01 0.00 36 1005.0
20260504184555 67 201 4.3 16.5 0.00 0.01 0.00 39 1005.0
20260504184052 66 298 4.3 14.8 0.00 0.01 0.00 39 1005.1
20260504183551 65 0 3.5 14.8 0.00 0.01 0.00 40 1005.1
20260504183054 66 207 6.1 13.9 0.00 0.01 0.00 38 1005.0
20260504182551 67 266 2.6 15.6 0.00 0.01 0.00 38 1005.1
20260504182048 66 255 4.3 16.5 0.00 0.01 0.00 39 1005.2
20260504181559 66 288 3.5 16.5 0.00 0.01 0.00 40 1005.3
20260504181048 66 276 3.5 13.0 0.00 0.01 0.00 39 1005.2
20260504180551 65 301 1.7 10.4 0.00 0.01 0.00 41 1005.4
20260504180059 64 257 0.0 11.3 0.00 0.01 0.00 42 1005.5
20260504175550 62 272 0.9 11.3 0.00 0.01 0.00 45 1005.7
20260504175048 60 0 0.9 11.3 0.00 0.01 0.00 45 1005.8
20260504174559 60 0 0.0 11.3 0.00 0.01 0.00 46 1005.6
20260504174048 60 0 0.0 11.3 0.00 0.01 0.00 46 1005.8
20260504173547 60 0 3.5 14.8 0.00 0.01 0.00 44 1005.7
20260504173057 60 250 4.3 14.8 0.00 0.01 0.00 44 1005.8
20260504172553 60 0 2.6 14.8 0.00 0.01 0.00 46 1005.7
20260504172052 61 293 1.7 17.4 0.00 0.01 0.00 44 1005.6
20260504171558 61 302 1.7 17.4 0.00 0.01 0.00 44 1005.6
20260504171053 61 278 7.8 20.0 0.00 0.01 0.00 43 1005.5
20260504170552 61 321 4.3 20.0 0.00 0.01 0.00 43 1005.5
20260504151053 62 0 6.1 13.9 0.00 0.01 0.00 41 1006.1
20260504150551 61 288 2.6 13.9 0.00 0.01 0.00 43 1006.0
20260504141051 60 262 2.6 11.3 0.00 0.01 0.00 43 1006.1
20260504140551 60 0 3.5 11.3 0.00 0.01 0.00 44 1006.2
20260504130552 54 0 0.0 1.7 0.00 0.01 0.00 58 1007.1
20260504110553 39 0 0.0 0.0 0.00 0.01 0.00 84 1008.0
20260504100552 39 0 0.0 0.0 0.00 0.01 0.00 82 1007.8
20260504081600 39 0 0.0 0.0 0.00 0.01 0.00 75 1008.0
20260504081051 39 0 0.0 0.0 0.00 0.01 0.00 73 1007.9
20260504080551 39 0 0.0 0.0 0.00 0.01 0.00 75 1008.1
20260504060123 34 0 0.0 0.0 0.00 0.01 0.00 81 1007.8
20260504050551 33 0 0.0 0.0 0.00 0.01 0.00 80 1007.9
20260504050112 33 0 0.0 0.0 0.00 0.01 0.00 80 1007.9
20260504045551 33 0 0.0 0.0 0.00 0.01 0.00 80 1008.0
20260504045050 33 0 0.0 0.0 0.00 0.01 0.00 79 1007.9
20260504044552 33 0 0.0 0.0 0.00 0.01 0.00 79 1007.9
20260504044054 33 0 0.0 0.0 0.00 0.01 0.00 79 1007.9
20260504043551 33 0 0.0 0.0 0.00 0.01 0.00 78 1008.0
20260504043106 33 0 0.0 0.0 0.00 0.01 0.00 78 1008.0
20260504042550 33 0 0.0 0.0 0.00 0.01 0.00 78 1008.0
20260504042051 33 0 0.0 0.0 0.00 0.01 0.00 78 1008.0
20260504041554 33 0 0.0 0.0 0.00 0.01 0.00 78 1008.0
20260504041051 34 0 0.0 0.0 0.00 0.01 0.00 78 1007.9
20260504040551 34 0 0.0 3.5 0.00 0.01 0.00 77 1007.9
20260504040059 34 0 0.0 3.5 0.00 0.01 0.00 77 1007.9
20260504035551 34 0 0.0 3.5 0.00 0.01 0.01 77 1007.7
20260504035052 35 0 0.0 0.0 0.00 0.01 0.01 76 1007.8
20260504034554 35 0 0.0 0.0 0.00 0.01 0.01 75 1007.7
20260504034051 35 0 0.0 0.0 0.00 0.01 0.01 75 1007.7
20260504033551 35 0 0.0 0.0 0.00 0.01 0.01 74 1007.8
20260504033056 35 0 0.0 0.0 0.00 0.01 0.01 72 1007.8
20260504032551 36 0 0.0 0.0 0.00 0.01 0.01 72 1007.7
20260504032054 36 0 0.0 0.0 0.00 0.01 0.01 71 1007.7
20260504031558 37 0 0.0 0.0 0.00 0.01 0.01 70 1007.8
20260504031050 37 0 0.0 0.0 0.00 0.01 0.01 70 1007.7
20260504030551 37 0 0.0 0.0 0.00 0.01 0.01 68 1007.7
20260504030053 37 0 0.0 0.0 0.00 0.01 0.01 68 1007.7
20260504025551 37 0 0.0 0.0 0.00 0.05 0.01 68 1007.7
20260504025051 38 0 0.0 0.0 0.00 0.05 0.01 67 1007.7
20260504024550 38 0 0.0 0.0 0.00 0.05 0.01 66 1007.8
20260504024053 39 0 0.0 0.0 0.00 0.05 0.01 65 1007.8
20260504023551 39 0 0.0 0.0 0.00 0.05 0.01 64 1007.8
20260504023053 40 0 0.0 0.0 0.00 0.05 0.01 62 1007.9
20260504022551 40 0 0.0 0.0 0.00 0.05 0.01 61 1007.9
20260504022050 40 0 0.0 0.0 0.00 0.05 0.01 61 1008.0
20260504021554 40 0 0.0 0.0 0.00 0.05 0.01 60 1007.9
20260504021050 40 0 0.0 0.0 0.00 0.05 0.01 60 1007.8
20260504020550 40 0 0.0 0.0 0.00 0.05 0.01 60 1007.8
20260504020052 41 0 0.0 0.0 0.00 0.05 0.01 60 1007.9
20260504015551 41 0 0.0 0.0 0.00 0.10 0.01 60 1007.8
20260504015051 41 0 0.0 0.0 0.00 0.10 0.01 59 1007.9
20260504014558 41 0 0.0 0.0 0.00 0.10 0.01 59 1007.7
20260504014050 41 0 0.0 0.0 0.00 0.10 0.01 59 1007.8
20260504013551 41 0 0.0 0.0 0.00 0.10 0.01 60 1007.7
20260504013100 41 0 0.0 0.0 0.00 0.10 0.01 60 1007.8
20260504012552 41 0 0.0 0.0 0.00 0.10 0.01 60 1007.7
20260504012053 41 0 0.0 0.0 0.00 0.10 0.01 60 1007.7
20260504011551 41 0 0.0 0.0 0.00 0.10 0.01 59 1007.7
20260504011051 41 0 0.0 0.0 0.00 0.10 0.01 59 1007.7
20260504010551 42 0 0.0 0.0 0.00 0.10 0.01 59 1007.6
20260504010112 42 0 0.0 0.0 0.00 0.10 0.01 58 1007.6
20260504005551 42 0 0.0 0.0 0.00 0.10 0.01 58 1007.5
20260504005051 42 0 0.0 0.0 0.00 0.10 0.01 57 1007.4
20260504004553 42 0 0.0 0.0 0.00 0.10 0.01 57 1007.2
20260504004053 43 0 0.0 0.0 0.00 0.10 0.01 57 1007.2
20260504003550 43 0 0.0 0.0 0.00 0.10 0.01 56 1007.2
20260504003051 43 0 0.0 0.0 0.00 0.10 0.01 56 1007.2
20260504002550 43 0 0.0 0.0 0.00 0.10 0.01 56 1007.1
20260504002050 44 0 0.0 0.0 0.00 0.10 0.01 55 1007.0
20260504001600 44 0 0.0 0.0 0.00 0.10 0.01 55 1006.9
20260504001050 44 0 0.0 0.0 0.00 0.10 0.01 54 1006.9
20260504000550 45 0 0.0 0.0 0.00 0.10 0.01 53 1006.8
20260504000059 45 0 0.0 1.7 0.00 0.10 0.01 52 1006.8
20260503235554 45 0 0.0 3.5 0.00 0.11 0.01 51 1006.7
20260503235051 45 0 0.0 3.5 0.00 0.11 0.01 50 1006.7
20260503234554 46 0 0.0 4.3 0.00 0.11 0.01 50 1006.6
20260503234053 46 0 0.0 4.3 0.00 0.11 0.01 50 1006.5
20260503233551 46 0 0.0 7.0 0.00 0.11 0.01 49 1006.5
20260503233101 46 0 0.0 7.0 0.00 0.11 0.01 48 1006.5
20260503232550 46 0 0.0 6.1 0.00 0.11 0.01 48 1006.3
20260503232050 47 275 0.0 7.0 0.00 0.11 0.01 48 1006.3
20260503231559 47 0 0.0 7.0 0.00 0.11 0.01 47 1006.4
20260503231051 47 0 0.0 11.3 0.00 0.11 0.01 47 1006.4
20260503230552 47 0 0.9 11.3 0.00 0.11 0.01 46 1006.4
20260503230056 48 0 0.9 9.6 0.00 0.11 0.01 45 1006.4
20260503225554 48 331 0.9 11.3 0.00 0.11 0.01 45 1006.4
20260503225051 48 0 0.0 11.3 0.00 0.11 0.01 46 1006.4
20260503224557 48 315 3.5 11.3 0.00 0.11 0.01 44 1006.3
20260503224051 49 304 1.7 15.6 0.00 0.11 0.01 44 1006.1
20260503223551 49 339 0.9 15.6 0.00 0.11 0.01 44 1006.2
20260503223051 49 0 1.7 13.9 0.00 0.11 0.01 43 1006.0
20260503222550 50 5 3.5 13.9 0.00 0.11 0.01 42 1006.1
20260503222053 50 276 0.9 10.4 0.00 0.11 0.01 45 1006.2
20260503221601 50 0 0.0 7.8 0.00 0.11 0.01 45 1006.1
20260503221051 49 0 0.0 7.8 0.00 0.11 0.01 45 1006.0
20260503220552 49 242 0.9 7.0 0.00 0.11 0.01 46 1006.0
20260503220105 48 0 0.0 9.6 0.00 0.11 0.01 46 1006.0
20260503215548 48 0 0.0 9.6 0.00 0.11 0.01 46 1006.1
20260503215048 48 0 0.9 12.2 0.00 0.11 0.01 46 1006.0
20260503214554 48 0 1.7 12.2 0.00 0.11 0.01 46 1005.9
20260503214054 48 277 0.9 12.2 0.00 0.11 0.01 45 1006.0
20260503213554 48 0 0.9 10.4 0.00 0.11 0.01 46 1006.0
20260503213054 48 0 1.7 12.2 0.00 0.11 0.01 45 1006.1
20260503212551 48 1 0.9 12.2 0.00 0.11 0.01 45 1006.0
20260503212048 48 256 2.6 10.4 0.00 0.11 0.01 46 1006.0
20260503211557 48 347 0.9 8.7 0.00 0.11 0.01 46 1006.0
20260503211048 48 0 0.0 13.9 0.00 0.11 0.01 46 1006.0
20260503210552 49 278 0.9 13.9 0.00 0.11 0.01 45 1005.9
20260503210057 49 271 3.5 13.0 0.00 0.11 0.01 45 1005.8
20260503205552 48 299 0.0 14.8 0.00 0.19 0.01 47 1006.0
20260503205052 48 294 2.6 14.8 0.00 0.19 0.01 46 1005.9
20260503204603 47 258 1.7 13.0 0.00 0.19 0.01 47 1005.7
20260503204051 47 0 2.6 11.3 0.00 0.19 0.01 48 1005.8
20260503203548 47 0 2.6 12.2 0.00 0.19 0.01 46 1005.9
20260503203100 47 0 1.7 12.2 0.00 0.19 0.01 46 1005.8
20260503202552 47 0 1.7 13.9 0.00 0.19 0.01 48 1005.9
20260503202050 47 0 3.5 13.9 0.00 0.19 0.01 47 1005.8
20260503201551 47 301 0.9 13.0 0.00 0.19 0.01 47 1005.6
20260503201048 48 314 0.9 13.0 0.00 0.19 0.01 46 1005.7
20260503200548 48 275 3.5 11.3 0.00 0.19 0.01 45 1005.5
20260503200054 48 1 0.9 16.5 0.01 0.19 0.01 44 1005.5
20260503195549 48 0 1.7 16.5 0.01 0.19 0.01 44 1005.4
20260503195049 49 271 6.1 15.6 0.01 0.19 0.01 43 1005.5